Погода в Гагарине

Погода в Гагарине : погода сейчас, прогноз погоды и архив. Всё, что Вы хотите узнать о погоде в Гагарине!

Хотите узнать прогноз погоды в Гагарине? Тогда Вам сюда: Погода в Гагарине

Поиск расширенной информации на нашем сайте:

Другие новости

Новости СМИ2

Главная страница сайта

Новости сайта

02.10.2013

Напоминаем, что на нашем новом сайте вы можете получить высокодетализированные прогнозы погоды по пунктам России, СНГ и мира (включающие важные для авиации метеовеличины, такие как направление и скорость ветра, видимость, явления погоды, количество и форма облачности, нижняя и верхняя граница облачности), а также ознакомиться с разнообразными материалами по авиационной метеорологии и подборкой полезных ссылок на эту тему.

Сайт Метеоцентр.Азия посвящён разработке технологий оптимизации авиаметеорологического обслуживания, включая проектирование и перспективное создание нескольких автоматизированных авиаметеорологических систем:
- система выпуска высокодетальных прогностических карт явлений погоды для нижнего воздушного пространства по России и ближнему зарубежью;
- система верификации прогнозов TAF (выпускаемых синоптиками официальных АМСГ РФ и ближнего зарубежья) и AUTOTAF (выпускаемых сайтом Метеоцентр.Азия) - выявление ошибок, онлайн-сопоставление с фактической погодой METAR, автоматическое внесение коррективов в прогнозы при резком отклонении фактической погоды от прогноза, подсчёт оправдываемости прогнозов по элементам и в целом;
- система обработки, анализа и отображения авиаметеорологической информации для применения провайдерами метеорологической информации.

Рекомендуем: Не работает компьютер мастер компьютерная помощь.

Погода в Гагарине - сегодня

Время (UTC), дата Ветер
(°,м/с) 
Видим.   Явления Облачность Т
(°С)
Тd
(°С)
f(%) Тe
(°С)
Pmin
(гПа)
dP
(гПа)
Po
(мм)
O2
(г/м3)
Тmin Tmax R s Состояние
почвы
00 24.03.17 тихо ()   10 км    4/0 верхняя 
[Cs]
-1.8 -3.8 86 -2  1024.4  -0.3  750  305           
03 24.03.17 120 (ЮВ) 12000 м    9/0 средняя 
[Ac As]
-1.2 -3.8 82 -1  1022.7  -1.6  749  303  -2.7         
06 24.03.17 170 (Ю) 12000 м    10/0 средняя 
[Ac As]
+1.1 -2.4 77 +2  1021.2  -1.2  748  300  -2.7         
09 24.03.17 210 (ЮЗ) 12000 м    10/0 средняя, верхняя 
[Ac As|Cs]
+6.7 -3 50 +8  1018.1  -2.5  746  294           
12 24.03.17 350 (С) 8000 м  слаб. дождь  10/10 400 м 
[St]
+3.3 +1.7 89 +3  1017  -1.4  745  296           
15 24.03.17 290 (З) 9000 м  дымка{дождь}  10/10 600 м 
[Sc]
+1.9 +0.5 90 +3  1016  -1.1  744  298         
18 24.03.17 310 (СЗ) 8000 м  слаб. снег{дождь}  8/0 средняя 
[As op]
+1.4 -1.1 83 +2  1016.5  0.4  744  298    +8.5     
21 24.03.17 310 (СЗ) 20000 м  {снег}  3/0 средняя 
[Ac trans]
-0.6 -4.8 73 1017.4  0.7  745  301           
00 25.03.17 300 (СЗ) 25000 м  {снег}  ясно 
-2.3 -6.6 72 -3  1018.1  0.5  745  304           
03 25.03.17 280 (З) 20000 м    ясно 
-3.6 -8.1 71 -5  1018.2  745  305  -3.6    0.0     
06 25.03.17 290 (З) 12000 м    ясно 
-1.5 -7.5 64 -3  1018.2  0.2  745  303  -3.8    0.0  <0.5  равномерный
сухой снег
100% 
09 25.03.17 280 (З) 12000 м    3/3 1000 м 
[Cu hum]
+2.2 -6.9 51 1017.2  -0.7  745  298           
12 25.03.17 280 (З) 12000 м    3/1 1000 м верхняя 
[Cu hum|Ci fib]
+4.4 -8.1 40 +3  1015.2  -1.8  744  296           
15 25.03.17 300 (СЗ) 12000 м    4/3 1000 м средняя 
[Cu hum|Ac trans]
+4.1 -8.8 38 +4  1014.2  -1  743  296           
18 25.03.17 тихо ()   25000 м    ясно 
-2.7 -6.8 73 -3  1015.3  0.4  743  303    +4.9       
21 25.03.17 тихо ()   9000 м  дымка  ясно 
-5.1 -7.1 86 -5  1016.2  0.7  744  306           
00 26.03.17 тихо ()   8000 м  дымка  ясно 
-6.2 -7 94 -6  1017.3  744  308           
03 26.03.17 тихо ()   7000 м  дымка  3/3 600 м 
[Sc diur, vesp]
-5.6 -6.3 95 -6  1018.1  0.8  745  307  -6.8         
06 26.03.17 тихо ()   12000 м    ясно 
-1.1 -6 69 -1  1018.7  746  302  -6.8         
09 26.03.17 210 (ЮЗ) 12000 м    4/4 1000 м 
[Cu hum]
+3.6 -10.5 35 +4  1017.7  -0.6  745  297           
12 26.03.17 290 (З) 12000 м    8/4 600 м верхняя 
[Cu med, cong|Ci sp]
+4.7 -8.5 38 +4  1015.6  -1.9  744  295           
15 26.03.17 250 (З) 12000 м    10/0 средняя 
[Ac und]
+3.8 -7.3 44 +3  1012.4  -3.1  741  295           
18 26.03.17 240 (ЮЗ) 6-11{11}  30000 м    10/0 средняя 
[Ac und]
+2.3 -4.5 61 -1  1008.4  -4  738  296    +5.2       
21 26.03.17 220 (ЮЗ) 6{11}  7000 м  слаб. снег  10/10 330 м 
[St]
+0.3 -0.1 97 -3  1001.9  -6.5  734  295           
00 27.03.17 260 (З) 5{13}  7000 м  слаб. снег  10/10 300 м 
[St]
+0.8 +0 94 -2  996.4  -5.3  730  293           
Время (UTC), дата Ветер
(°,м/с) 
Видим.   Явления Облачность Т
(°С)
Тd
(°С)
f(%) Тe
(°С)
Pmin
(гПа)
dP
(гПа)
Po
(мм)
O2
(г/м3)
Тmin Tmax R s Состояние
почвы

Для получения пояснительной информации подведите курсор к названию столбца.

ПОГОДА в Гагарине - архив

Всё, что Вы хотите узнать о погоде в Гагарине - удобно и подробно!

Выберите нужную дату (начиная с 1 января 2015* года) и нажмите кнопку "Найти".
Будут отображены архивные сводки погоды по пункту Гагарин, начиная с указанной даты.


Отображать данные в формате CSV (для использования в таблицах Excel)


Внимание! Наш архив погоды предназначен исключительно для личного некоммерческого использования в познавательных целях. Если Вам необходимы официальные справки о состоянии погоды (для производственных, юридических, коммерческих и т.п. целей), обращайтесь в органы Росгидромета.

*Примечание: данная дата относится к архиву по метеостанциям СССР (Россия, СНГ, Балтия).
Архив по метеостанциям Зарубежной Европы и Азии (кроме Китая) хранится 10 дней, по другим регионам земного шара (Китай, Африка, Америка, Австралия, Океания) - 1 день.

Гагарин - район местоположения метеостанции


Название, широта, долгота, высота метеостанции:
Гагарин 55.5°ш. 35°д. 194 м над ур. моря [Российская Федерация]

Дополнительная информация

В oтличие oт бoльшинства пoгoдных сайтoв мы публикуем пoдрoбную метеoинфoрмацию в детальнoм прoфессиoнальнoм фoрмате.

Характеристики температуры и влажнoсти вoздуха измеряются на высoте 2 м в тени вдали oт зданий и деревьев.
Скoрoсть ветра измеряется на высoте 10 м (на урoвне рoста челoвека скoрoсть ветра ниже в 1.5-2 раза). Если метеoстанция нахoдится в гoрoде или в лесу, тo скoрoсть ветра занижена на 2-4 м/с пo сравнению с oткрытым местoм. Скoрoсть ветра над акватoриями крупных рек и oзёр, а также на вершинах хoлмoв на 2-5 м/с выше, чем в oбычных услoвиях.
Атмoсфернoе давление в разных тoчках местнoсти мoжет значительнo oтличаться oт давления на метеoстанции, в зависимoсти oт услoвий рельефа (при пoдъёме на 10 м давление пoнижается примернo на 1 мм рт.ст.).